| time (UTC) | temp F | wind direction | speed MPH | gust MPH | rain 1hr in | rain 24hr in | rain mn in | humidity % | barometer mb |
| 20260505113042 | 58 | 284 | 1.0 | 3.0 | 0.00 | 0.00 | 0.00 | 73 | 1023.9 |
| 20260505111536 | 58 | 279 | 1.0 | 8.0 | 0.00 | 0.00 | 0.00 | 73 | 1023.7 |
| 20260505101520 | 57 | 348 | 2.0 | 4.0 | 0.00 | 0.00 | 0.00 | 78 | 1023.8 |
| 20260505100020 | 57 | 332 | 0.0 | 1.0 | 0.00 | 0.00 | 0.00 | 77 | 1023.8 |
| 20260505094505 | 58 | 332 | 0.0 | 2.0 | 0.00 | 0.00 | 0.00 | 77 | 1023.7 |
| 20260505093101 | 58 | 332 | 0.0 | 2.0 | 0.00 | 0.00 | 0.00 | 76 | 1023.8 |
| 20260505093002 | 58 | 332 | 0.0 | 2.0 | 0.00 | 0.00 | 0.00 | 76 | 1023.8 |
| 20260505091551 | 58 | 305 | 0.0 | 1.0 | 0.00 | 0.00 | 0.00 | 76 | 1023.7 |
| 20260505090044 | 58 | 305 | 0.0 | 2.0 | 0.00 | 0.00 | 0.00 | 75 | 1023.6 |
| 20260505084551 | 58 | 292 | 0.0 | 3.0 | 0.00 | 0.00 | 0.00 | 76 | 1023.6 |
| 20260505083047 | 58 | 289 | 1.0 | 3.0 | 0.00 | 0.00 | 0.00 | 76 | 1023.5 |
| 20260505081540 | 58 | 297 | 2.0 | 5.0 | 0.00 | 0.00 | 0.00 | 76 | 1023.3 |
| 20260505080017 | 58 | 315 | 0.0 | 5.0 | 0.00 | 0.00 | 0.00 | 76 | 1023.1 |
| 20260505074505 | 58 | 301 | 2.0 | 5.0 | 0.00 | 0.00 | 0.00 | 75 | 1023.0 |
| 20260505073110 | 58 | 293 | 2.0 | 5.0 | 0.00 | 0.00 | 0.00 | 75 | 1022.8 |
| 20260505071559 | 59 | 308 | 2.0 | 5.0 | 0.00 | 0.00 | 0.00 | 74 | 1022.7 |
| 20260505070049 | 59 | 267 | 3.0 | 9.0 | 0.00 | 0.00 | 0.00 | 72 | 1022.7 |
| 20260505064542 | 59 | 264 | 2.0 | 9.0 | 0.00 | 0.00 | 0.00 | 71 | 1022.6 |
| 20260505063021 | 59 | 279 | 2.0 | 8.0 | 0.00 | 0.00 | 0.00 | 69 | 1022.3 |
| 20260505061540 | 59 | 270 | 6.0 | 9.0 | 0.00 | 0.00 | 0.00 | 68 | 1022.4 |
| 20260505060014 | 59 | 296 | 5.0 | 9.0 | 0.00 | 0.00 | 0.00 | 68 | 1022.2 |
| 20260505054511 | 59 | 238 | 2.0 | 9.0 | 0.00 | 0.00 | 0.00 | 70 | 1022.0 |
| 20260505053002 | 59 | 275 | 1.0 | 6.0 | 0.00 | 0.00 | 0.00 | 72 | 1021.9 |
| 20260505051555 | 59 | 257 | 2.0 | 10.0 | 0.00 | 0.00 | 0.00 | 71 | 1021.9 |
| 20260505041512 | 59 | 217 | 2.0 | 13.0 | 0.00 | 0.00 | 0.00 | 70 | 1021.4 |
| 20260505040009 | 59 | 264 | 3.0 | 11.0 | 0.00 | 0.00 | 0.00 | 72 | 1021.2 |
| 20260505034510 | 59 | 289 | 5.0 | 11.0 | 0.00 | 0.00 | 0.00 | 72 | 1021.2 |
| 20260505033028 | 59 | 279 | 6.0 | 13.0 | 0.00 | 0.00 | 0.00 | 70 | 1021.2 |
| 20260505031542 | 59 | 267 | 4.0 | 12.0 | 0.00 | 0.00 | 0.00 | 72 | 1021.2 |
| 20260505030030 | 59 | 265 | 10.0 | 18.0 | 0.00 | 0.00 | 0.00 | 71 | 1021.2 |
| 20260505024518 | 59 | 240 | 10.0 | 17.0 | 0.00 | 0.00 | 0.00 | 73 | 1021.3 |
| 20260505023121 | 58 | 265 | 11.0 | 18.0 | 0.00 | 0.00 | 0.00 | 74 | 1021.4 |
| 20260505023003 | 58 | 272 | 10.0 | 18.0 | 0.00 | 0.00 | 0.00 | 74 | 1021.4 |
| 20260505021558 | 58 | 252 | 9.0 | 17.0 | 0.00 | 0.00 | 0.00 | 73 | 1021.4 |
| 20260505020054 | 58 | 269 | 9.0 | 17.0 | 0.00 | 0.00 | 0.00 | 73 | 1021.6 |
| 20260505014544 | 58 | 266 | 11.0 | 18.0 | 0.00 | 0.00 | 0.00 | 74 | 1021.6 |
| 20260505013040 | 58 | 277 | 7.0 | 21.0 | 0.00 | 0.00 | 0.00 | 75 | 1021.7 |
| 20260505011535 | 58 | 263 | 8.0 | 18.0 | 0.00 | 0.00 | 0.00 | 76 | 1021.7 |
| 20260505010016 | 57 | 254 | 7.0 | 19.0 | 0.00 | 0.00 | 0.00 | 78 | 1021.6 |
| 20260505004503 | 57 | 271 | 10.0 | 19.0 | 0.00 | 0.00 | 0.00 | 78 | 1021.5 |
| 20260505003058 | 57 | 263 | 8.0 | 19.0 | 0.00 | 0.00 | 0.00 | 79 | 1021.2 |
| 20260505001551 | 57 | 287 | 12.0 | 19.0 | 0.00 | 0.00 | 0.00 | 79 | 1020.9 |
| 20260505000055 | 57 | 232 | 11.0 | 18.0 | 0.00 | 0.00 | 0.00 | 80 | 1020.7 |
| 20260504234532 | 57 | 277 | 7.0 | 16.0 | 0.00 | 0.00 | 0.00 | 81 | 1020.6 |
| 20260504233018 | 56 | 282 | 6.0 | 18.0 | 0.00 | 0.00 | 0.00 | 81 | 1020.6 |
| 20260504231503 | 56 | 313 | 10.0 | 19.0 | 0.00 | 0.00 | 0.00 | 80 | 1020.5 |
| 20260504230106 | 57 | 271 | 6.0 | 15.0 | 0.00 | 0.00 | 0.00 | 81 | 1020.4 |
| 20260504224535 | 56 | 277 | 5.0 | 18.0 | 0.00 | 0.00 | 0.00 | 82 | 1020.4 |
| 20260504223017 | 56 | 297 | 6.0 | 13.0 | 0.00 | 0.00 | 0.00 | 83 | 1020.0 |
| 20260504221508 | 56 | 270 | 9.0 | 18.0 | 0.00 | 0.00 | 0.00 | 83 | 1019.7 |
| 20260504220037 | 56 | 315 | 9.0 | 15.0 | 0.00 | 0.00 | 0.00 | 84 | 1019.4 |
| 20260504214519 | 56 | 272 | 9.0 | 17.0 | 0.00 | 0.00 | 0.00 | 84 | 1019.1 |
| 20260504213106 | 56 | 267 | 6.0 | 14.0 | 0.00 | 0.00 | 0.00 | 85 | 1019.0 |
| 20260504211548 | 56 | 297 | 6.0 | 12.0 | 0.00 | 0.00 | 0.00 | 85 | 1018.6 |
| 20260504210036 | 55 | 292 | 7.0 | 15.0 | 0.00 | 0.00 | 0.00 | 85 | 1018.5 |
| 20260504204521 | 56 | 289 | 8.0 | 17.0 | 0.00 | 0.00 | 0.00 | 86 | 1018.4 |
| 20260504203008 | 56 | 286 | 7.0 | 15.0 | 0.00 | 0.00 | 0.00 | 86 | 1018.2 |
| 20260504201554 | 56 | 303 | 5.0 | 17.0 | 0.00 | 0.00 | 0.00 | 84 | 1017.8 |
| 20260504200043 | 56 | 306 | 8.0 | 15.0 | 0.00 | 0.00 | 0.00 | 84 | 1017.6 |
| 20260504194540 | 56 | 280 | 8.0 | 17.0 | 0.00 | 0.00 | 0.00 | 84 | 1017.5 |
| 20260504193032 | 56 | 292 | 6.0 | 12.0 | 0.00 | 0.00 | 0.00 | 83 | 1017.3 |
| 20260504191509 | 56 | 296 | 9.0 | 17.0 | 0.00 | 0.00 | 0.00 | 83 | 1017.3 |
| 20260504190121 | 56 | 281 | 7.0 | 15.0 | 0.00 | 0.00 | 0.00 | 83 | 1017.0 |
| 20260504190002 | 56 | 279 | 9.0 | 19.0 | 0.00 | 0.00 | 0.00 | 83 | 1017.0 |
| 20260504184549 | 56 | 325 | 9.0 | 16.0 | 0.00 | 0.00 | 0.00 | 82 | 1016.8 |
| 20260504183037 | 56 | 336 | 5.0 | 14.0 | 0.00 | 0.00 | 0.00 | 82 | 1016.4 |
| 20260504181533 | 56 | 300 | 7.0 | 15.0 | 0.00 | 0.00 | 0.00 | 82 | 1016.4 |
| 20260504180025 | 57 | 310 | 6.0 | 16.0 | 0.00 | 0.00 | 0.00 | 81 | 1016.1 |
| 20260504174519 | 57 | 327 | 6.0 | 16.0 | 0.00 | 0.00 | 0.00 | 81 | 1016.1 |
| 20260504173012 | 57 | 265 | 5.0 | 18.0 | 0.00 | 0.00 | 0.00 | 80 | 1016.1 |
| 20260504171505 | 57 | 292 | 8.0 | 18.0 | 0.00 | 0.00 | 0.00 | 80 | 1015.8 |